www.pogodaiklimat.ru
ПОГОДА в Вестмистере
Время
и дата
21:35 07.12
21:55 07.12
22:15 07.12
22:35 07.12
22:50 07.12
23:15 07.12
23:35 07.12
23:55 07.12
00:15 08.12
00:35 08.12
00:55 08.12
01:15 08.12
01:30 08.12
01:55 08.12
02:10 08.12
02:35 08.12
02:55 08.12
03:15 08.12
03:35 08.12
03:55 08.12
04:15 08.12
04:35 08.12
04:55 08.12
05:10 08.12
05:35 08.12
05:55 08.12
06:15 08.12
06:35 08.12
06:55 08.12
07:15 08.12
07:35 08.12
07:55 08.12
08:15 08.12
08:35 08.12
08:55 08.12
09:05 08.12
09:35 08.12
09:55 08.12
10:15 08.12
10:35 08.12
10:55 08.12
11:15 08.12
11:35 08.12
11:50 08.12
12:10 08.12
12:35 08.12
13:00 08.12
13:20 08.12
Ветер
(напр.,м/с)
Видим. Явления Облачность Т
(С)
Тd
(С)
f
(%)
Тe
(С)
Тes
(С)
Комфортность P
(гПа)
Po
(гПа)
Тmin
(С)
Tmax
(С)
R
(мм)
R24
(мм)
S
(см)
штиль 0 <100 м туман 10/10 60 м +11.0 +11.0 100 +10 +10 993.3
штиль 0 <100 м туман 10/10 60 м +11.0 +11.0 100 +10 +10 993.7
З 2 <100 м туман 10/10 60 м +11.0 +11.0 100 +10 +10 993.3
штиль 0 <100 м туман 10/10 60 м +11.0 +11.0 100 +10 +10 993.7
штиль 0 <100 м туман 10/10 60 м +11.0 +11.0 100 +10 +10 993.7
штиль 0 400 м туман 10/10 60 м +11.0 +11.0 100 +10 +10 993.7
штиль 0 <100 м туман 10/10 60 м +10.0 +10.0 100 +9 +9 993.7
штиль 0 <100 м туман 10/10 60 м +10.0 +10.0 100 +9 +9 993.7
штиль 0 <100 м туман 10/10 60 м +9.0 +9.0 100 +8 +8 993.3
штиль 0 400 м туман 10/10 60 м +9.0 +9.0 100 +8 +8 993.7
штиль 0 400 м туман 10/10 60 м +8.0 +8.0 100 +7 +7 993.7
штиль 0 <100 м туман 10/10 60 м +8.0 +8.0 100 +7 +7 993.7
штиль 0 <100 м туман 10/10 60 м +8.0 +8.0 100 +7 +7 993.7
штиль 0 1 км дымка 10/10 60 м +7.0 +7.0 100 +6 +6 993.7
штиль 0 800 м туман 10/10 60 м +7.0 +7.0 100 +6 +6 994.0
штиль 0 11 км 10/10 960 м +8.0 +8.0 100 +7 +7 994.0
СЗ 2 11 км 10/10 1020 м +8.0 +8.0 100 +6 +6 994.3
СЗ 2 8 км дымка 10/10 1020 м +9.0 +9.0 100 +7 +7 994.3
СЗ 2 11 км 8/8 1080 м +9.0 +9.0 100 +7 +7 994.7
штиль 0 11 км 10/10 1080 м +9.0 +9.0 100 +8 +8 994.3
штиль 0 11 км 10/10 1080 м +9.0 +9.0 100 +8 +8 994.3
штиль 0 11 км 10/10 1020 м +9.0 +9.0 100 +8 +8 994.7
СЗ 2 16 км 10/10 1020 м +9.0 +9.0 100 +7 +7 994.3
СЗ 2 16 км 8/8 1080 м +9.0 +9.0 100 +7 +7 994.7
СЗ 2 16 км 5/5 1140 м +9.0 +8.0 93 +7 +7 994.7
штиль 0 16 км 5/5 1140 м +8.0 +8.0 100 +7 +7 994.7
СЗ 2 16 км ясно +8.0 +8.0 100 +6 +6 995.0
штиль 0 16 км ясно +8.0 +8.0 100 +7 +7 995.6
штиль 0 16 км ясно +8.0 +8.0 100 +7 +7 996.0
С 2 16 км ясно +8.0 +7.0 93 +6 +6 996.0
С 2 16 км ясно +8.0 +7.0 93 +6 +6 995.6
штиль 0 16 км ясно +8.0 +7.0 93 +7 +7 995.6
штиль 0 16 км ясно +9.0 +7.0 87 +8 +8 995.3
С 2 16 км ясно +9.0 +6.0 81 +7 +7 995.6
С 3 16 км ясно +11.0 +6.0 71 +9 +9 996.0
С 3 16 км ясно +11.0 +6.0 71 +9 +10 996.0
СЗ 2 16 км ясно +11.0 +6.0 71 +10 +11 996.0
С 4 16 км ясно +11.0 +5.0 66 +9 +10 996.0
С 3
{7}
16 км ясно +12.0 +5.0 62 +11 +13 996.6
С 6
{7}
16 км ясно +12.0 +4.0 58 +10 +11 996.6
С 5 н/о ясно +12.0 +4.0 58 +10 +11 997.3
С 5
{7}
н/о н/о +12.0 +4.0 58 +10 +10 997.0
С 3 16 км ясно +12.0 +3.0 54 +11 +14 996.6
С 4 16 км ясно +12.0 +4.0 58 +10 +13 996.3
СЗ 3 16 км ясно +12.0 +3.0 54 +11 +15 995.6
С 3
{8}
16 км н/о +12.0 +4.0 58 +11 +11 995.6
С 2 16 км н/о +12.0 +3.0 54 +11 +11 995.3
штиль 0 16 км ясно +12.0 +3.0 54 +12 +18 995.3
Местоположение метеостанции Carroll County Regional Jack B Poage Field: широта 39.6100 долгота -77.0100 высота над уровнем моря 241 м.
В архиве по умолчанию представлена погода в Вестмистере за последние 1-2 суток. Обновление информации о фактической погоде в базе происходит ежечасно! Архивные данные за месяц целиком и за предыдущие месяцы Вы можете получить, выбрав интересующий диапазон дат из раскрывающегося списка и нажав кнопку "Ввод!".
Внимание! Архив погоды МЕТАР в базе сайта по станциям, не включенным в климатический монитор, хранится не более 60 дней. Нет смысла пытаться выбрать более раннюю дату.
*Определитесь, кто Вы:
Внимание! Время в таблицах - местное (без учета летнего времени). Для получения всемирного времени необходимо вычесть поправку, которая равна -5 ч.
Смотрите также архив погоды в соседних городах и на ближайших метеорологических станциях:
Партнеры нашего сайта:      
Пояснения к столбцам:
  • Ветер - указаны скорость ветра в м/с - средняя за 10 мин, порывы в срок и между сроками (в фигурных скобках) и направление, откуда дует ветер: С - северный,
  • СВ - северо-восточный, В - восточный, ЮВ - юго-восточный, Ю - южный, ЮЗ - юго-западный, З - западный, СЗ - северо-западный.
  • Видимость - горизонтальная дальность видимости в метрах или километрах. При видимости от 1 до 10 км при отсутствии осадков обычно наблюдается дымка, при ухудшении видимости до 1 км и менее - туман. В сухую погоду видимость может ухудшаться дымом, пылью или мглою.
  • Явления - указаны атмосферные явления, наблюдавшиеся в срок или в последний час перед сроком; фигурными скобками обозначены явления, наблюдавшиеся между сроками (за 1-3 часа до срока); квадратными скобками обозначены град или гололедные отложения с указанием их диаметра в мм.
  • Облачность - указаны через наклонную черту общая и нижняя облачность в баллах и высота нижней границы облаков в метрах; квадратными скобками обозначены формы облаков: Ci - перистые, Cs - перисто-слоистые, Cc - перисто-кучевые, Ac - высококучевые, As - высокослоистые, Sc - слоисто-кучевые, Ns - слоисто-дождевые, Cu - кучевые, Cb - кучево-дождевые. Подробнее классификацию облаков см. в Атласе облаков (PDF).
  • T - Температура воздуха - температура, измеренная на высоте 2 м над землей.
  • Td - Температура точки росы - температура, при понижении до которой содержащийся в воздухе водяной пар достигнет насыщения.
  • f - Относительная влажность воздуха - влажноcть воздуха, измеренная на высоте 2 м над землей.
  • Te - Эффективная температура - температура, которую ощущает одетый по сезону человек в тени. Характеристика душности погоды. При расчете учитывается влияние влажности воздуха и скорости ветра на теплоощущения человека.
  • Tes - Эффективная температура на солнце - температура, которую ощущает человек, с поправкой на солнечный нагрев. Характеристика знойности погоды. Зависит от высоты солнца над горизонтом, облачности и скорости ветра. Ночью, в пасмурную погоду, а также при ветре 12 м/с и более поправка равна нулю.
  • P - Атмосферное давление - приведенное к уровню моря атмосферное давление.
  • Po - Атмосферное давление - измеренное на уровне метеостанции атмосферное давление.
  • Tmin - Минимальная температура - минимум температуры воздуха на высоте 2 м над землей.
  • Tmax - Максимальная температура - максимум температуры воздуха на высоте 2 м над землей.
  • R - Количество осадков - Количество выпавших осадков за период времени, мм. При наведении курсора мыши на число - период времени, за который выпало указанное количество осадков.
  • R24 - Количество осадков - Количество выпавших осадков за 24 часа, мм.
  • S - Снежный покров - Высота снежного покрова, см. При наведении курсора мыши на число - состояние снежного покрова и степень покрытия местности в баллах.